Погода в Мордовской Пишле

Россия / Республика Мордовия     54°06′27″N   44°47′48″E
темп.,
°C
ветер,
м/с
пор.,
м/с
влажн.,
%
обл.,
%
осадки,
мм/ч
давл.,
гПа
погр.,
м
6 мая, чт
чт600:00+7юз41281100 0.0 1013248
03:00+8юз5147684 0.0 1014336
06:00+8юз411825 0.0 1015252
09:00+13юз6965100 0.0 1015586
12:00+16ююз7955100 0.0 10151519
15:00+16ююз7955100 0.0 10141782
18:00+15ююз6106284 0.0 1014615
21:00+11ю51274100 0.0 1014274
7 мая, пт
пт700:00+10ю51376100 0.0 1014315
03:00+10ю51477100 0.0 1013324
06:00+10ю61369100 0.0 1013357
09:00+12ю61268100 0.0 1013509
12:00+15ююз6960100 0.0 10121227
15:00+9сз6788100 0.8 1015399
18:00+8ссз468732 0.5 1016440
21:00+6св22915 0.5 101812
8 мая, сб
сб800:00+5вюв22890 0.0 101812
03:00+5всв118832 0.0 101810
06:00+6в258673 0.0 1018151
09:00+11юв5778100 0.0 1015592
12:00+15ю586088 0.1 10141264
15:00+16ю794987 0.1 10121375
18:00+15ю5115989 0.0 1011447
21:00+13ююв51467100 0.1 1010451
9 мая, вс
вс900:00+13ю71671100 0.1 1009638
03:00+12ю61484100 1.2 1009542
06:00+10зсз5791100 0.2 1011382
09:00+9зсз4587100 0.2 1012520
12:00+7сз4686100 2.0 1015509
15:00+7ссз3692100 6.8 1017490
18:00+6с3793100 3.4 1019510
21:00+6с4993100 4.9 1020696
10 мая, пн
пн1000:00+7с4109093 0.1 1022509
03:00+6ссв51192100 0.1 1024388
06:00+6ссв6129092 0.0 1026514
09:00+9св71177100 0.0 1027714
12:00+9св61179100 0.0 1028718
15:00+9всв51178100 0.0 1028605
18:00+10всв4117957 0.0 1028578
21:00+7св4109128 0.0 1029195